Weather History for KPSM - October, 2011

Change the Weather History Date:

Tuesday, October 18, 2011

  Actual Average Record
Temperature  
Mean Temperature 54 °F -  
Max Temperature 63 °F 56 °F 77 °F (1998)
Min Temperature 45 °F 39 °F 18 °F (1978)
Degree Days  
Heating Degree Days 10    
Growing Degree Days 4 (Base 50)    
Moisture  
Dew Point 39 °F    
Average Humidity 63    
Maximum Humidity 90    
Minimum Humidity 41    
Precipitation  
Precipitation 0.00 in - - ()
Sea Level Pressure  
Sea Level Pressure 29.83 in    
Wind  
Wind Speed 5 mph (WSW)    
Max Wind Speed 12 mph    
Max Gust Speed -    
Visibility 10 miles    
Events      
Averages and records for this station are not official NWS values.
T = Trace of Precipitation, MM = Missing Value Source: NWS Daily Summary

Daily Weather History Graph

Daily Weather History Graph

Search for Another Location

Airport or City:

Trip Planner

Search our weather history database for the weather conditions in past years. The results will help you decide how hot, cold, wet, or windy it might be!

Date:

Astronomy

Oct. 18, 2011 Rise Set
Actual Time 7:00 AM EDT 5:56 PM EDT
Civil Twilight 6:31 AM EDT 6:24 PM EDT
Nautical Twilight 5:58 AM EDT 6:57 PM EDT
Astronomical Twilight 5:25 AM EDT 7:30 PM EDT
Moon 10:28 PM EDT (10/18) 12:54 PM EDT (10/18)
Length of Visible Light 11h 53m
Length of Day
10h 56m
Waning Gibbous, 65% of the Moon is Illuminated
Oct 18
Waning Gibbous
Oct 19
Last Quarter
Oct 26
New
Nov 2
First Quarter
Nov 10
Full

Hourly Weather History & Observations

Time (EDT) Temp. Windchill Dew Point Humidity Pressure Visibility Wind Dir Wind Speed Gust Speed Precip Events Conditions
12:55 AM 50.4 °F - 38.1 °F 63% 29.70 in 10.0 mi West 4.6 mph - N/A   Clear
1:55 AM 49.1 °F - 37.9 °F 65% 29.71 in 10.0 mi Calm Calm - N/A   Clear
2:55 AM 47.5 °F - 39.0 °F 72% 29.72 in 10.0 mi SW 5.8 mph - N/A   Partly Cloudy
3:55 AM 46.9 °F - 37.2 °F 69% 29.73 in 10.0 mi Calm Calm - N/A   Scattered Clouds
4:55 AM 46.4 °F 44.3 °F 37.0 °F 70% 29.75 in 10.0 mi SW 4.6 mph - N/A   Scattered Clouds
5:55 AM 47.8 °F - 36.1 °F 64% 29.76 in 10.0 mi Calm Calm - N/A   Partly Cloudy
6:22 AM 48.2 °F - 35.6 °F 62% 29.75 in 10.0 mi SW 5.8 mph - N/A   Scattered Clouds
6:55 AM 48.4 °F - 35.6 °F 61% 29.76 in 10.0 mi WSW 5.8 mph - N/A   Scattered Clouds
7:55 AM 49.3 °F - 36.9 °F 62% 29.79 in 10.0 mi SW 6.9 mph - N/A   Mostly Cloudy
8:55 AM 51.6 °F - 38.3 °F 60% 29.81 in 10.0 mi WSW 9.2 mph - N/A   Mostly Cloudy
9:55 AM 53.4 °F - 38.1 °F 56% 29.83 in 10.0 mi SW 8.1 mph - N/A   Mostly Cloudy
10:55 AM 55.2 °F - 39.2 °F 55% 29.83 in 10.0 mi SW 6.9 mph - N/A   Mostly Cloudy
11:55 AM 57.9 °F - 39.7 °F 51% 29.84 in 10.0 mi WSW 10.4 mph - N/A   Overcast
12:55 PM 58.1 °F - 38.8 °F 49% 29.84 in 10.0 mi WSW 11.5 mph - N/A   Mostly Cloudy
1:55 PM 59.2 °F - 39.4 °F 48% 29.84 in 10.0 mi WSW 9.2 mph - N/A   Mostly Cloudy
2:55 PM 62.2 °F - 39.4 °F 43% 29.84 in 10.0 mi WSW 11.5 mph - N/A   Mostly Cloudy
3:55 PM 63.3 °F - 39.2 °F 41% 29.85 in 10.0 mi West 8.1 mph - N/A   Mostly Cloudy
4:55 PM 60.8 °F - 41.2 °F 48% 29.86 in 10.0 mi West 3.5 mph - N/A   Mostly Cloudy
5:55 PM 58.5 °F - 40.1 °F 51% 29.88 in 10.0 mi Calm Calm - N/A   Scattered Clouds
6:55 PM 52.7 °F - 42.3 °F 68% 29.90 in 10.0 mi Calm Calm - N/A   Scattered Clouds
7:55 PM 49.8 °F - 42.8 °F 77% 29.91 in 10.0 mi Calm Calm - N/A   Mostly Cloudy
8:55 PM 48.4 °F - 42.4 °F 80% 29.93 in 10.0 mi SSE 6.9 mph - N/A   Mostly Cloudy
9:55 PM 49.1 °F - 42.1 °F 77% 29.94 in 10.0 mi Calm Calm - N/A   Mostly Cloudy
10:55 PM 47.8 °F - 42.3 °F 81% 29.95 in 10.0 mi NNW 3.5 mph - N/A   Mostly Cloudy
11:55 PM 45.9 °F - 43.0 °F 90% 29.96 in 10.0 mi Calm Calm - N/A   Mostly Cloudy